Location: Spring Creek
(38.2870°N, 100.2160°W)
Time: 09:13:00
(UTC+00:00)

In-Cosmos 22 - Pass Details

Date: 08 May 2021
Orbit: 784 x 877 km, 81.2° (Epoch: 21 June)

Event Time Altitude Azimuth Distance (km) Brightness Sun altitude
Exits shadow 08:59:23 63° 181° (S) 953 4.2 -25.3°
Maximum altitude 09:00:21 87° 98° (E) 862 4.1 -25.2°
Drops below altitude 10° 09:05:58 10° 10° (N) 2,465 7.4 -24.5°
Sets 09:08:22 0° 10° (N) 3,389 8.3 -24.2°
